Time,TemperatureF,DewpointF,PressureIn,WindDirection,WindDirectionDegrees,WindSpeedMPH,WindSpeedGustMPH,Humidity,HourlyPrecipIn,Conditions,Clouds,dailyrainin,SolarRadiationWatts/m^2,SoftwareType,DateUTC
2013-04-30 00:15:00,73.3,61.0,29.48,NNE,19,7.0,-999.0,65,-99.99,,,0.00,0,weatherlink.com 1.10,2013-04-30 05:15:00,
2013-04-30 00:27:00,73.5,61.0,29.48,NNE,23,10.0,-999.0,64,-99.99,,,0.00,0,weatherlink.com 1.10,2013-04-30 05:27:00,
2013-04-30 00:42:00,73.3,61.0,29.48,NE,36,9.0,-999.0,65,-99.99,,,0.00,0,weatherlink.com 1.10,2013-04-30 05:42:00,
2013-04-30 00:57:00,73.0,60.0,29.48,NNE,32,6.0,-999.0,64,-99.99,,,0.00,0,weatherlink.com 1.10,2013-04-30 05:57:00,
2013-04-30 01:12:00,72.8,60.0,29.49,North,5,5.0,-999.0,64,-99.99,,,0.00,0,weatherlink.com 1.10,2013-04-30 06:12:00,
2013-04-30 01:27:00,72.5,60.0,29.48,NNE,19,8.0,-999.0,64,-99.99,,,0.00,0,weatherlink.com 1.10,2013-04-30 06:27:00,
2013-04-30 01:42:00,72.1,59.0,29.48,North,5,7.0,-999.0,64,-99.99,,,0.00,0,weatherlink.com 1.10,2013-04-30 06:42:00,
2013-04-30 01:57:00,71.8,59.0,29.48,North,360,11.0,-999.0,64,-99.99,,,0.00,0,weatherlink.com 1.10,2013-04-30 06:57:00,
2013-04-30 02:12:00,71.8,58.0,29.48,NNW,330,12.0,-999.0,63,-99.99,,,0.00,0,weatherlink.com 1.10,2013-04-30 07:12:00,
2013-04-30 02:36:00,71.8,58.0,29.49,NNE,24,9.0,-999.0,62,-99.99,,,0.00,0,weatherlink.com 1.10,2013-04-30 07:36:00,
2013-04-30 02:42:00,71.8,58.0,29.49,North,11,12.0,-999.0,62,-99.99,,,0.00,0,weatherlink.com 1.10,2013-04-30 07:42:00,
2013-04-30 02:57:00,71.6,57.0,29.49,North,5,10.0,-999.0,61,-99.99,,,0.00,0,weatherlink.com 1.10,2013-04-30 07:57:00,
2013-04-30 03:12:00,71.3,57.0,29.49,NNE,30,7.0,-999.0,61,-99.99,,,0.00,0,weatherlink.com 1.10,2013-04-30 08:12:00,
2013-04-30 03:27:00,71.1,56.0,29.49,North,360,11.0,-999.0,60,-99.99,,,0.00,0,weatherlink.com 1.10,2013-04-30 08:27:00,
2013-04-30 03:45:00,71.5,56.0,29.49,NNE,26,5.0,-999.0,58,-99.99,,,0.00,0,weatherlink.com 1.10,2013-04-30 08:45:00,
2013-04-30 03:57:00,71.6,55.0,29.49,NNE,30,6.0,-999.0,56,-99.99,,,0.00,0,weatherlink.com 1.10,2013-04-30 08:57:00,
2013-04-30 04:12:00,71.5,55.0,29.49,NE,38,6.0,-999.0,56,-99.99,,,0.00,0,weatherlink.com 1.10,2013-04-30 09:12:00,
2013-04-30 04:27:00,71.3,55.0,29.49,NNE,19,10.0,-999.0,56,-99.99,,,0.00,0,weatherlink.com 1.10,2013-04-30 09:27:00,
2013-04-30 04:42:00,70.9,54.0,29.49,NNE,13,5.0,-999.0,56,-99.99,,,0.00,0,weatherlink.com 1.10,2013-04-30 09:42:00,
2013-04-30 04:57:00,70.4,54.0,29.49,NNE,29,5.0,-999.0,57,-99.99,,,0.00,0,weatherlink.com 1.10,2013-04-30 09:57:00,
2013-04-30 05:12:00,70.1,54.0,29.49,NE,44,8.0,-999.0,57,-99.99,,,0.00,0,weatherlink.com 1.10,2013-04-30 10:12:00,
2013-04-30 05:27:00,70.1,54.0,29.50,NE,38,7.0,-999.0,57,-99.99,,,0.00,0,weatherlink.com 1.10,2013-04-30 10:27:00,
2013-04-30 05:43:00,69.8,54.0,29.50,NNE,14,9.0,-999.0,57,-99.99,,,0.00,0,weatherlink.com 1.10,2013-04-30 10:43:00,
2013-04-30 06:06:00,69.1,53.0,29.52,NNE,12,12.0,-999.0,57,-99.99,,,0.00,0,weatherlink.com 1.10,2013-04-30 11:06:00,
2013-04-30 06:13:00,69.1,53.0,29.52,NNE,23,7.0,-999.0,57,-99.99,,,0.00,0,weatherlink.com 1.10,2013-04-30 11:13:00,
2013-04-30 06:28:00,68.9,52.0,29.52,ENE,61,9.0,-999.0,56,-99.99,,,0.00,0,weatherlink.com 1.10,2013-04-30 11:28:00,
2013-04-30 06:43:00,68.9,52.0,29.53,North,11,10.0,-999.0,55,-99.99,,,0.00,11,weatherlink.com 1.10,2013-04-30 11:43:00,
2013-04-30 06:58:00,68.9,52.0,29.53,NNE,24,7.0,-999.0,55,-99.99,,,0.00,19,weatherlink.com 1.10,2013-04-30 11:58:00,
2013-04-30 07:17:00,69.3,51.0,29.55,NE,43,7.0,-999.0,53,-99.99,,,0.00,28,weatherlink.com 1.10,2013-04-30 12:17:00,
2013-04-30 07:28:00,69.4,51.0,29.55,NNE,22,6.0,-999.0,53,-99.99,,,0.00,53,weatherlink.com 1.10,2013-04-30 12:28:00,
2013-04-30 07:43:00,69.8,52.0,29.56,NE,37,10.0,-999.0,53,-99.99,,,0.00,105,weatherlink.com 1.10,2013-04-30 12:43:00,
2013-04-30 07:58:00,70.1,52.0,29.56,NNE,32,11.0,-999.0,52,-99.99,,,0.00,67,weatherlink.com 1.10,2013-04-30 12:58:00,
2013-04-30 08:13:00,70.9,51.0,29.57,NE,39,12.0,-999.0,50,-99.99,,,0.00,167,weatherlink.com 1.10,2013-04-30 13:13:00,
2013-04-30 08:28:00,71.8,51.0,29.57,NNE,24,5.0,-999.0,48,-99.99,,,0.00,315,weatherlink.com 1.10,2013-04-30 13:28:00,
2013-04-30 08:43:00,72.5,51.0,29.59,NNE,23,12.0,-999.0,47,-99.99,,,0.00,410,weatherlink.com 1.10,2013-04-30 13:43:00,
2013-04-30 08:58:00,73.3,51.0,29.59,NE,55,10.0,-999.0,45,-99.99,,,0.00,487,weatherlink.com 1.10,2013-04-30 13:58:00,
2013-04-30 09:13:00,74.2,50.0,29.59,NE,42,12.0,-999.0,42,-99.99,,,0.00,466,weatherlink.com 1.10,2013-04-30 14:13:00,
2013-04-30 09:36:00,75.3,49.0,29.59,NE,38,12.0,-999.0,40,-99.99,,,0.00,274,weatherlink.com 1.10,2013-04-30 14:36:00,
2013-04-30 09:43:00,75.3,48.0,29.59,NE,46,17.0,-999.0,38,-99.99,,,0.00,221,weatherlink.com 1.10,2013-04-30 14:43:00,
2013-04-30 09:58:00,76.0,49.0,29.60,NNE,28,11.0,-999.0,38,-99.99,,,0.00,494,weatherlink.com 1.10,2013-04-30 14:58:00,
2013-04-30 10:13:00,77.2,50.0,29.59,NNE,13,11.0,-999.0,39,-99.99,,,0.00,482,weatherlink.com 1.10,2013-04-30 15:13:00,
2013-04-30 10:28:00,78.1,51.0,29.59,NE,51,12.0,-999.0,39,-99.99,,,0.00,737,weatherlink.com 1.10,2013-04-30 15:28:00,
2013-04-30 10:58:00,79.0,53.0,29.59,NNW,329,12.0,-999.0,40,-99.99,,,0.00,754,weatherlink.com 1.10,2013-04-30 15:58:00,
2013-04-30 11:13:00,79.4,55.0,29.59,NNE,29,7.0,-999.0,43,-99.99,,,0.00,786,weatherlink.com 1.10,2013-04-30 16:13:00,
2013-04-30 11:28:00,79.8,54.0,29.59,NE,47,14.0,-999.0,41,-99.99,,,0.00,763,weatherlink.com 1.10,2013-04-30 16:28:00,
2013-04-30 11:43:00,79.9,55.0,29.59,NNE,27,8.0,-999.0,42,-99.99,,,0.00,837,weatherlink.com 1.10,2013-04-30 16:43:00,
2013-04-30 11:58:00,80.9,54.0,29.59,ENE,58,18.0,-999.0,39,-99.99,,,0.00,849,weatherlink.com 1.10,2013-04-30 16:58:00,
2013-04-30 12:13:00,81.1,55.0,29.59,NNE,22,6.0,-999.0,40,-99.99,,,0.00,863,weatherlink.com 1.10,2013-04-30 17:13:00,
2013-04-30 12:28:00,81.8,54.0,29.58,NE,41,18.0,-999.0,39,-99.99,,,0.00,881,weatherlink.com 1.10,2013-04-30 17:28:00,
2013-04-30 12:43:00,82.4,55.0,29.58,NNE,13,7.0,-999.0,39,-99.99,,,0.00,881,weatherlink.com 1.10,2013-04-30 17:43:00,
2013-04-30 13:07:00,83.2,55.0,29.58,NNE,19,10.0,-999.0,38,-99.99,,,0.00,896,weatherlink.com 1.10,2013-04-30 18:07:00,
2013-04-30 13:13:00,82.6,54.0,29.58,NE,36,10.0,-999.0,38,-99.99,,,0.00,791,weatherlink.com 1.10,2013-04-30 18:13:00,
2013-04-30 13:29:00,83.0,54.0,29.58,NNE,32,7.0,-999.0,37,-99.99,,,0.00,865,weatherlink.com 1.10,2013-04-30 18:29:00,
2013-04-30 13:44:00,83.4,55.0,29.58,NE,46,8.0,-999.0,38,-99.99,,,0.00,888,weatherlink.com 1.10,2013-04-30 18:44:00,
2013-04-30 13:59:00,84.1,55.0,29.57,North,9,4.0,-999.0,37,-99.99,,,0.00,837,weatherlink.com 1.10,2013-04-30 18:59:00,
2013-04-30 14:18:00,84.1,56.0,29.58,ENE,63,10.0,-999.0,38,-99.99,,,0.00,246,weatherlink.com 1.10,2013-04-30 19:18:00,
2013-04-30 14:29:00,84.5,55.0,29.58,East,87,7.0,-999.0,37,-99.99,,,0.00,789,weatherlink.com 1.10,2013-04-30 19:29:00,
2013-04-30 14:44:00,84.3,56.0,29.58,NNE,27,10.0,-999.0,38,-99.99,,,0.00,786,weatherlink.com 1.10,2013-04-30 19:44:00,
2013-04-30 14:59:00,84.3,55.0,29.58,NNW,342,10.0,-999.0,36,-99.99,,,0.00,209,weatherlink.com 1.10,2013-04-30 19:59:00,
2013-04-30 15:14:00,84.5,54.0,29.58,NE,50,7.0,-999.0,35,-99.99,,,0.00,243,weatherlink.com 1.10,2013-04-30 20:14:00,
2013-04-30 15:29:00,84.7,52.0,29.58,NNE,27,13.0,-999.0,32,-99.99,,,0.00,271,weatherlink.com 1.10,2013-04-30 20:29:00,
2013-04-30 15:44:00,84.7,54.0,29.58,NNE,12,5.0,-999.0,35,-99.99,,,0.00,462,weatherlink.com 1.10,2013-04-30 20:44:00,
2013-04-30 15:59:00,84.5,52.0,29.58,NNE,30,12.0,-999.0,33,-99.99,,,0.00,418,weatherlink.com 1.10,2013-04-30 20:59:00,
2013-04-30 16:14:00,84.9,54.0,29.58,North,5,12.0,-999.0,35,-99.99,,,0.00,339,weatherlink.com 1.10,2013-04-30 21:14:00,
2013-04-30 16:38:00,85.5,54.0,29.58,North,360,12.0,-999.0,34,-99.99,,,0.00,195,weatherlink.com 1.10,2013-04-30 21:38:00,
2013-04-30 16:44:00,84.9,53.0,29.58,NNE,17,11.0,-999.0,33,-99.99,,,0.00,181,weatherlink.com 1.10,2013-04-30 21:44:00,
2013-04-30 16:59:00,84.9,54.0,29.59,NNE,30,10.0,-999.0,35,-99.99,,,0.00,181,weatherlink.com 1.10,2013-04-30 21:59:00,
2013-04-30 17:14:00,84.3,53.0,29.59,North,350,11.0,-999.0,34,-99.99,,,0.00,153,weatherlink.com 1.10,2013-04-30 22:14:00,
2013-04-30 17:29:00,84.1,53.0,29.60,North,350,8.0,-999.0,34,-99.99,,,0.00,313,weatherlink.com 1.10,2013-04-30 22:29:00,
2013-04-30 17:47:00,84.5,52.0,29.60,North,360,9.0,-999.0,33,-99.99,,,0.00,376,weatherlink.com 1.10,2013-04-30 22:47:00,
2013-04-30 17:59:00,84.1,52.0,29.60,NNW,347,6.0,-999.0,33,-99.99,,,0.00,83,weatherlink.com 1.10,2013-04-30 22:59:00,
2013-04-30 18:14:00,83.6,50.0,29.61,NE,36,12.0,-999.0,31,-99.99,,,0.00,97,weatherlink.com 1.10,2013-04-30 23:14:00,
2013-04-30 18:29:00,83.2,50.0,29.62,North,5,8.0,-999.0,32,-99.99,,,0.00,81,weatherlink.com 1.10,2013-04-30 23:29:00,
2013-04-30 18:44:00,82.4,51.0,29.62,NE,34,11.0,-999.0,34,-99.99,,,0.00,86,weatherlink.com 1.10,2013-04-30 23:44:00,
2013-04-30 18:59:00,81.6,52.0,29.62,NNW,340,7.0,-999.0,36,-99.99,,,0.00,47,weatherlink.com 1.10,2013-04-30 23:59:00,
2013-04-30 19:14:00,80.7,51.0,29.62,North,355,6.0,-999.0,36,-99.99,,,0.00,42,weatherlink.com 1.10,2013-05-01 00:14:00,
2013-04-30 19:29:00,79.6,51.0,29.64,NNE,22,4.0,-999.0,37,-99.99,,,0.00,12,weatherlink.com 1.10,2013-05-01 00:29:00,
2013-04-30 19:44:00,78.6,52.0,29.65,NNE,24,7.0,-999.0,39,-99.99,,,0.00,7,weatherlink.com 1.10,2013-05-01 00:44:00,
2013-04-30 20:06:00,77.4,51.0,29.66,North,9,3.0,-999.0,40,-99.99,,,0.00,0,weatherlink.com 1.10,2013-05-01 01:06:00,
2013-04-30 20:14:00,76.8,51.0,29.66,North,350,4.0,-999.0,41,-99.99,,,0.00,0,weatherlink.com 1.10,2013-05-01 01:14:00,
2013-04-30 20:29:00,76.5,51.0,29.65,North,5,4.0,-999.0,41,-99.99,,,0.00,0,weatherlink.com 1.10,2013-05-01 01:29:00,
2013-04-30 20:44:00,75.8,51.0,29.65,NNW,342,10.0,-999.0,42,-99.99,,,0.00,0,weatherlink.com 1.10,2013-05-01 01:44:00,
2013-04-30 20:59:00,75.1,52.0,29.66,NNE,29,3.0,-999.0,44,-99.99,,,0.00,0,weatherlink.com 1.10,2013-05-01 01:59:00,
2013-04-30 21:17:00,74.2,51.0,29.68,NNE,26,4.0,-999.0,45,-99.99,,,0.00,0,weatherlink.com 1.10,2013-05-01 02:17:00,
2013-04-30 21:29:00,73.9,51.0,29.68,NE,34,4.0,-999.0,44,-99.99,,,0.00,0,weatherlink.com 1.10,2013-05-01 02:29:00,
2013-04-30 21:44:00,73.5,51.0,29.70,NE,36,0.0,-999.0,45,-99.99,,,0.00,0,weatherlink.com 1.10,2013-05-01 02:44:00,
2013-04-30 21:59:00,73.2,52.0,29.72,SE,129,1.0,-999.0,47,-99.99,,,0.00,0,weatherlink.com 1.10,2013-05-01 02:59:00,
2013-04-30 22:14:00,72.0,51.0,29.73,South,174,3.0,-999.0,47,-99.99,,,0.00,0,weatherlink.com 1.10,2013-05-01 03:14:00,
2013-04-30 22:29:00,70.3,50.0,29.74,South,182,5.0,-999.0,49,-99.99,,,0.00,0,weatherlink.com 1.10,2013-05-01 03:29:00,
2013-04-30 22:44:00,69.1,50.0,29.75,South,182,6.0,-999.0,50,-99.99,,,0.00,0,weatherlink.com 1.10,2013-05-01 03:44:00,
2013-04-30 22:59:00,68.1,49.0,29.75,South,179,3.0,-999.0,51,-99.99,,,0.00,0,weatherlink.com 1.10,2013-05-01 03:59:00,
2013-04-30 23:14:00,67.4,48.0,29.76,South,169,6.0,-999.0,50,-99.99,,,0.00,0,weatherlink.com 1.10,2013-05-01 04:14:00,
2013-04-30 23:37:00,65.3,48.0,29.76,South,174,5.0,-999.0,54,-99.99,,,0.00,0,weatherlink.com 1.10,2013-05-01 04:37:00,
2013-04-30 23:44:00,64.8,48.0,29.76,South,178,6.0,-999.0,55,-99.99,,,0.00,0,weatherlink.com 1.10,2013-05-01 04:44:00,
2013-04-30 23:59:00,63.4,47.0,29.76,South,188,6.0,-999.0,55,-99.99,,,0.00,0,weatherlink.com 1.10,2013-05-01 04:59:00,